Flag for U.S.A. Weather past 2 weeks in Modesto, California, U.S.A.

Now
78 °F

Sunny.


Feels Like: 78 °F
Forecast: 56 / 84 °F
Wind: 18 mph from Northwest

Location: Modesto City-County-Sham Field

Current Time: Apr 26, 2015 at 6:09:14 PM

Latest Report: Apr 26, 2015 at 4:53 PM


Visibility: 10 mi

Pressure: 30.00 "Hg

Humidity: 23%

Dew point: 37 °F

Location of ModestoLocation

Historic Weather in Modesto — Graph

°F

Modesto temperature yesterday

Maximum temperature yesterday: 72 °F (at 4:53 PM)
Minimum temperature yesterday: 55 °F (at 2:53 AM)
Average temperature yesterday: 63 °F

Past Weeks' High & Low Weather Summary

 TemperatureHumidityPressure
High86 °F (Apr 18, 3:53 PM)89% (Apr 13, 5:53 AM)30.31 "Hg (Apr 13, 5:53 AM)
Low47 °F (Apr 16, 6:53 AM)10% (Apr 14, 3:53 PM)29.73 "Hg (Apr 20, 6:53 PM)
Average65 °F48%29.95 "Hg
* Reported Apr 11 4:53 PM — Apr 26 4:53 PM, Modesto, Weather by CustomWeather, © 2015

Note: Actual official high and low records may vary slightly from our data, if they occured in-between our weather recording intervals... More about our weather records

Advertising

Modesto weather history for previous 24 hours

 ConditionsComfort  
Time TempWeatherWind HumidityBarometerVisibility
4:53 PM
Sun, Apr 26
78 °FSunny.18 mph23%30.00 "Hg10 mi
3:53 PM78 °FSunny.17 mph23%30.02 "Hg10 mi
2:53 PM76 °FSunny.15 mph27%30.04 "Hg10 mi
1:53 PM74 °FSunny.16 mph36%30.07 "Hg10 mi
12:53 PM73 °FSunny.13 mph38%30.08 "Hg10 mi
11:53 AM70 °FSunny.17 mph38%30.11 "Hg10 mi
10:53 AM68 °FSunny.15 mph38%30.10 "Hg10 mi
9:53 AM65 °FSunny.15 mph40%30.09 "Hg10 mi
8:53 AM62 °FSunny.10 mph44%30.09 "Hg10 mi
7:53 AM57 °FSunny.8 mph58%30.08 "Hg10 mi
6:53 AM52 °FClear.3 mph69%30.05 "Hg10 mi
5:53 AM51 °FClear.5 mph71%30.04 "Hg10 mi
4:53 AM52 °FClear.6 mph69%30.03 "Hg10 mi
3:53 AM53 °FClear.7 mph69%30.02 "Hg10 mi
2:53 AM53 °FClear.5 mph69%30.02 "Hg10 mi
1:53 AM55 °FClear.7 mph64%30.01 "Hg10 mi
12:53 AM56 °FClear.5 mph62%30.01 "Hg10 mi
11:53 PM
Sat, Apr 25
57 °FClear.7 mph58%30.01 "Hg10 mi
10:53 PM59 °FClear.9 mph49%29.99 "Hg10 mi
9:53 PM59 °FClear.9 mph51%29.98 "Hg10 mi
8:53 PM62 °FClear.14 mph46%29.98 "Hg10 mi
7:53 PM65 °FSunny.14 mph45%29.95 "Hg10 mi
6:53 PM69 °FPassing clouds.14 mph42%29.93 "Hg10 mi
Weather by CustomWeather, © 2015

See weather overviewHow to use our weather pages